Regional Weather Roundup
Issued by NWS Charleston, SC

Current Version | Previous Version | Text Only | Print | Product List | Glossary Off
Versions: 1 2 3 4 5 6 7 8 9 10 11 12 13 14 15 16 17 18 19 20 21 22 23 24 25 26 27 28 29 30 31 32 33 34 35 36 37 38 39 40 41 42 43 44 45 46 47 48 49 50

000
ASUS42 KCHS 011311
RWRCHS

REGIONAL WEATHER ROUNDUP
NATIONAL WEATHER SERVICE CHARLESTON SC
800 AM EST SUN MAR 01 2015

NOTE: "FAIR" INDICATES FEW OR NO CLOUDS BELOW 12,000 FEET WITH NO
SIGNIFICANT WEATHER AND/OR OBSTRUCTIONS TO VISIBILITY.

NOT ALL STATIONS ARE QUALITY CONTROLLED BY THE NATIONAL
WEATHER SERVICE. USE DATA WITH CAUTION...ESPECIALLY
DEWPOINT OBSERVATIONS.

SCZ027-030-031-034>040-042>050-011400-
...SOUTHEAST SOUTH CAROLINA...

CITY           SKY/WX    TMP DP  RH WIND       PRES   REMARKS
N CHARLESTON   DRIZZLE   40  36  86 N6        30.50R WCI  36
WATERFRONT PRK   N/A     43 N/A N/A N10         N/A
MOUNT PLEASANT CLOUDY    41  39  93 CALM      30.49S
PINOPOLIS        N/A     39  36  87 NE9       30.43R WCI  33
MONCKS CORNER  CLOUDY    39  36  87 N6        30.50S WCI  35
SUMMERVILLE    RAIN      37  37 100 N6        30.52R WCI  33
BEAUFORT MCAS  CLOUDY    41  38  89 N10       30.50R FOG
BEAUFORT ARPT  CLOUDY    41  41 100 CALM      30.49S
HILTON HEAD IS NOT AVBL
WALTERBORO     HVY RAIN  37  37 100 N3        30.52S
ALLENDALE      CLOUDY    37  37 100 N6        30.52R FOG     WCI  33

...SOUTHERN MIDLANDS AND PEE DEE...

CITY           SKY/WX    TMP DP  RH WIND       PRES   REMARKS
GEORGETOWN     NOT AVBL
KINGSTREE      NOT AVBL
ORANGEBURG     LGT RAIN  35  32  88 N6        30.54R FOG     WCI  30
BARNWELL       CLOUDY    36  36 100 N7        30.54R WCI  30
AIKEN          RAIN      34  34 100 N3        30.57R
MANNING        NOT AVBL
COLUMBIA       RAIN      35  33  92 NW5       30.56R FOG     WCI  31
SUMTER         LGT RAIN  33  31  93 N8        30.52R FOG     WCI  26
FLORENCE       CLOUDY    35  31  85 N8        30.53F FOG     WCI  29
MYRTLE BEACH   CLOUDY    39  34  81 NE10      30.53F WCI  32
N MYRTLE BEACH CLOUDY    39  33  79 NE9       30.51F WCI  33

$$

GAZ063-065-086>088-099>101-113>116-118-119-134>141-150-011400-
...SOUTHEAST GEORGIA...

CITY           SKY/WX    TMP DP  RH WIND       PRES   REMARKS
SAVANNAH ARPT  CLOUDY    41  39  93 N7        30.49S FOG
HUNTER AAF     CLOUDY    42  42  98 N5        30.46R
FORT STEWART   DRIZZLE   42  40  94 N6        30.47R
STATESBORO     DRIZZLE   39  39 100 N8        30.52R WCI  34
SYLVANIA       DRIZZLE   38  38 100 NE7       30.52R WCI  33
CLAXTON        CLOUDY    41  41 100 NE6       30.51R FOG

...CSRA...CENTRAL AND FAR SOUTHEAST GEORGIA...

CITY           SKY/WX    TMP DP  RH WIND       PRES   REMARKS
THOMSON        CLOUDY    36  36 100 NE3       30.58S
AUGUSTA-BUSH   CLOUDY    36  34  92 NE7       30.56R FOG     WCI  30
AUGUSTA-DANIEL CLOUDY    36  33  89 N7        30.55R FOG     WCI  30
SWAINSBORO     CLOUDY    41  39  93 NE8       30.52R FOG
VIDALIA        CLOUDY    41  41 100 NE8       30.50R FOG
EASTMAN        CLOUDY    40  40 100 NE8       30.52S FOG     WCI  35
HAZLEHURST     CLOUDY    43  43 100 NE6       30.48S FOG
ALMA           CLOUDY    43  42  97 VRB6      30.47S FOG
WAYCROSS       CLOUDY    47  47  98 NE6       30.46S FOG
JESUP          CLOUDY    45  45 100 NE3       30.48R FOG
BAXLEY         CLOUDY    45  43  93 NE7       30.48R FOG
BRUNSWICK      CLOUDY    46  45  93 N5        30.47R
SAINT SIMONS   CLOUDY    46  44  93 N9        30.46R FOG

$$

SCZ027-028-034-036>038-045-046-048>050-GAZ119-141-011400-
...LAKE AND SUPPLEMENTAL COASTAL OBSERVATIONS...

STATION/POSITION TIME  TEMP    WIND        PRES    WAVE   SWELL
                       AIR SEA DIR/SP/G            HT/PER HT/PER/DIR
                 (UTC) (F)     (DEG/KT/KT) (MB)    (FT/S) (FT/S/D)
UPR LAKE MARION  NOT AVBL
WINYAH BAY       1145   39      10/  4     1032.0
LAKE MURRAY      1200   33      20/  3/  5 1033.2S
ACE BASIN NERRS  NOT AVBL
FORT PULASKI     1200   43 48   10/  7/  9 1032.3F
SAPELO ISLAND    1200   45      20/ 11     1031.0S

$$

ANZ835-935-AMZ111-154-330-350-352-354-370-450-454-472-011400-
...C-MAN AND BUOY OBSERVATIONS...

STATION/POSITION TIME  TEMP    WIND        PRES    WAVE   SWELL
                       AIR SEA DIR/SP/G            HT/PER HT/PER/DIR
                 (UTC) (F)     (DEG/KT/KT) (MB)    (FT/S) (FT/S/D)
BUOY 41004       1250   68 67  100/ 14/ 19 1030.5R   9/ 8   7/ 8
BUOY 41008       1250   50 53   20/ 17/ 21 1030.5R   7/ 7   3/ 70/10
FOLLY BEACH CMAN 1300   42      20/ 10/ 13 1032.4F
CAPERS NEARSHORE NOT AVBL
FRIPP NEARSHORE  1200   44      40/ 14/ 17 1030.5R


STATION/POSITION TIME  TEMP    WIND        PRES    WAVE   SWELL
                       AIR SEA DIR/SP/G            HT/PER HT/PER/DIR
                 (UTC) (F)     (DEG/KT/KT) (MB)    (FT/S) (FT/S/D)
5E ST. MARYS GA  1221      52                N/A     6/ 7   2/100/11
FRYING PAN BUOY  1250   64 61  120/ 12/ 14 1032.8R   7/ 6   5/ 90/ 6
BUOY 41025       NOT AVBL
CAPE LOOKOUT NC  1200   38      20/  8/ 11 1034.7R
BUOY 41002       1250   67 71  100/ 19/ 21 1033.1R   9/ 8
BUOY 41010       1220   71 74   90/ 21/ 25 1028.2R
ST AUGUSTINE FL  1300   53     360/ 18/ 20 1030.3R


$$



USA.gov is the U.S. government's official web portal to all federal, state and local government web resources and services.